Year,Month,Day,Hour,Minute,Value (Times are PST for windspeed in km/hr)
2019,12,19,00,00,2.60
2019,12,19,00,01,6.40
2019,12,19,00,02,5.50
2019,12,19,00,03,6.00
2019,12,19,00,04,0.80
2019,12,19,00,05,4.50
2019,12,19,00,06,3.80
2019,12,19,00,07,10.10
2019,12,19,00,08,8.90
2019,12,19,00,09,6.70
2019,12,19,00,10,9.90
2019,12,19,00,11,12.70
2019,12,19,00,12,18.70
2019,12,19,00,13,9.30
2019,12,19,00,14,16.40
2019,12,19,00,15,0.30
2019,12,19,00,16,4.90
2019,12,19,00,17,2.90
2019,12,19,00,18,12.40
2019,12,19,00,19,11.40
2019,12,19,00,20,11.70
2019,12,19,00,21,10.40
2019,12,19,00,22,9.70
2019,12,19,00,23,6.20
2019,12,19,00,24,12.80
2019,12,19,00,25,7.80
2019,12,19,00,26,5.40
2019,12,19,00,27,7.80
2019,12,19,00,28,3.80
2019,12,19,00,29,0.00
2019,12,19,00,30,0.10
2019,12,19,00,31,0.00
2019,12,19,00,32,0.00
2019,12,19,00,33,1.10
2019,12,19,00,34,8.30
2019,12,19,00,35,7.80
2019,12,19,00,36,2.00
2019,12,19,00,37,0.00
2019,12,19,00,38,1.00
2019,12,19,00,39,3.00
2019,12,19,00,40,9.70
2019,12,19,00,41,0.50
2019,12,19,00,42,4.70
2019,12,19,00,43,7.20
2019,12,19,00,44,12.10
2019,12,19,00,45,13.80
2019,12,19,00,46,11.70
2019,12,19,00,47,9.40
2019,12,19,00,48,10.30
2019,12,19,00,49,11.40
2019,12,19,00,50,10.20
2019,12,19,00,51,9.20
2019,12,19,00,52,10.20
2019,12,19,00,53,8.80
2019,12,19,00,54,2.60
2019,12,19,00,55,0.00
2019,12,19,00,56,0.00
2019,12,19,00,57,0.00
2019,12,19,00,58,0.00
2019,12,19,00,59,0.00
2019,12,19,01,00,5.00
2019,12,19,01,01,2.20
2019,12,19,01,02,0.00
2019,12,19,01,03,1.60
2019,12,19,01,04,0.60
2019,12,19,01,05,0.00
2019,12,19,01,06,0.00
2019,12,19,01,07,0.00
2019,12,19,01,08,0.00
2019,12,19,01,09,0.00
2019,12,19,01,10,0.00
2019,12,19,01,11,0.00
2019,12,19,01,12,0.00
2019,12,19,01,13,0.20
2019,12,19,01,14,5.50
2019,12,19,01,15,4.40
2019,12,19,01,16,0.00
2019,12,19,01,17,1.70
2019,12,19,01,18,3.00
2019,12,19,01,19,0.00
2019,12,19,01,20,9.30
2019,12,19,01,21,22.40
2019,12,19,01,22,9.50
2019,12,19,01,23,5.30
2019,12,19,01,24,14.20
2019,12,19,01,25,0.00
2019,12,19,01,26,2.20
2019,12,19,01,27,7.30
2019,12,19,01,28,2.90
2019,12,19,01,29,1.30
2019,12,19,01,30,12.70
2019,12,19,01,31,6.60
2019,12,19,01,32,7.40
2019,12,19,01,33,13.50
2019,12,19,01,34,14.60
2019,12,19,01,35,11.00
2019,12,19,01,36,7.90
2019,12,19,01,37,4.20
2019,12,19,01,38,12.60
2019,12,19,01,39,4.30
2019,12,19,01,40,0.70
2019,12,19,01,41,11.60
2019,12,19,01,42,8.40
2019,12,19,01,43,4.20
2019,12,19,01,44,1.30
2019,12,19,01,45,2.90
2019,12,19,01,46,9.60
2019,12,19,01,47,1.50
2019,12,19,01,48,1.30
2019,12,19,01,49,0.30
2019,12,19,01,50,0.00
2019,12,19,01,51,0.00
2019,12,19,01,52,9.20
2019,12,19,01,53,7.20
2019,12,19,01,54,1.20
2019,12,19,01,55,0.00
2019,12,19,01,56,1.50
2019,12,19,01,57,3.50
2019,12,19,01,58,3.70
2019,12,19,01,59,0.30
2019,12,19,02,00,4.80
2019,12,19,02,01,6.40
2019,12,19,02,02,5.50
2019,12,19,02,03,1.50
2019,12,19,02,04,8.70
2019,12,19,02,05,4.10
2019,12,19,02,06,9.50
2019,12,19,02,07,1.30
2019,12,19,02,08,0.00
2019,12,19,02,09,0.00
2019,12,19,02,10,0.00
2019,12,19,02,11,0.00
2019,12,19,02,12,0.20
2019,12,19,02,13,0.10
2019,12,19,02,14,0.00
2019,12,19,02,15,0.00
2019,12,19,02,16,3.90
2019,12,19,02,17,8.60
2019,12,19,02,18,0.00
2019,12,19,02,19,0.00
2019,12,19,02,20,0.00
2019,12,19,02,21,0.00
2019,12,19,02,22,0.00
2019,12,19,02,23,0.00
2019,12,19,02,24,0.00
2019,12,19,02,25,6.60
2019,12,19,02,26,5.20
2019,12,19,02,27,5.60
2019,12,19,02,28,5.80
2019,12,19,02,29,2.10
2019,12,19,02,30,0.00
2019,12,19,02,31,0.00
2019,12,19,02,32,0.00
2019,12,19,02,33,0.00
2019,12,19,02,34,0.00
2019,12,19,02,35,0.00
2019,12,19,02,36,0.00
2019,12,19,02,37,0.00
2019,12,19,02,38,0.00
2019,12,19,02,39,0.00
2019,12,19,02,40,0.10
2019,12,19,02,41,0.00
2019,12,19,02,42,0.00
2019,12,19,02,43,0.00
2019,12,19,02,44,0.00
2019,12,19,02,45,0.00
2019,12,19,02,46,0.00
2019,12,19,02,47,0.00
2019,12,19,02,48,0.00
2019,12,19,02,49,2.50
2019,12,19,02,50,0.00
2019,12,19,02,51,0.00
2019,12,19,02,52,0.00
2019,12,19,02,53,0.00
2019,12,19,02,54,0.00
2019,12,19,02,55,0.30
2019,12,19,02,56,0.60
2019,12,19,02,57,0.00
2019,12,19,02,58,0.00
2019,12,19,02,59,0.00
2019,12,19,03,00,0.00
2019,12,19,03,01,0.00
2019,12,19,03,02,0.00
2019,12,19,03,03,0.00
2019,12,19,03,04,0.00
2019,12,19,03,05,0.00
2019,12,19,03,06,0.00
2019,12,19,03,07,0.00
2019,12,19,03,08,2.80
2019,12,19,03,09,0.00
2019,12,19,03,10,0.00
2019,12,19,03,11,0.00
2019,12,19,03,12,0.00
2019,12,19,03,13,0.00
2019,12,19,03,14,0.00
2019,12,19,03,15,0.00
2019,12,19,03,16,0.00
2019,12,19,03,17,0.00
2019,12,19,03,18,0.00
2019,12,19,03,19,0.00
2019,12,19,03,20,0.00
2019,12,19,03,21,0.00
2019,12,19,03,22,0.00
2019,12,19,03,23,0.00
2019,12,19,03,24,0.00
2019,12,19,03,25,0.00
2019,12,19,03,26,0.00
2019,12,19,03,27,0.10
2019,12,19,03,28,6.20
2019,12,19,03,29,0.20
2019,12,19,03,30,0.00
2019,12,19,03,31,0.00
2019,12,19,03,32,0.00
2019,12,19,03,33,0.00
2019,12,19,03,34,0.00
2019,12,19,03,35,0.00
2019,12,19,03,36,0.00
2019,12,19,03,37,0.00
2019,12,19,03,38,0.00
2019,12,19,03,39,0.50
2019,12,19,03,40,1.40
2019,12,19,03,41,0.00
2019,12,19,03,42,0.00
2019,12,19,03,43,0.00
2019,12,19,03,44,0.00
2019,12,19,03,45,0.00
2019,12,19,03,46,0.20
2019,12,19,03,47,0.00
2019,12,19,03,48,0.00
2019,12,19,03,49,0.00
2019,12,19,03,50,0.00
2019,12,19,03,51,1.50
2019,12,19,03,52,0.70
2019,12,19,03,53,0.00
2019,12,19,03,54,0.00
2019,12,19,03,55,0.00
2019,12,19,03,56,0.00
2019,12,19,03,57,0.00
2019,12,19,03,58,0.00
2019,12,19,03,59,0.00
2019,12,19,04,00,0.00
2019,12,19,04,01,0.00
2019,12,19,04,02,0.00
2019,12,19,04,03,0.00
2019,12,19,04,04,0.00
2019,12,19,04,05,0.00
2019,12,19,04,06,0.00
2019,12,19,04,07,0.00
2019,12,19,04,08,0.00
2019,12,19,04,09,0.00
2019,12,19,04,10,0.00
2019,12,19,04,11,0.00
2019,12,19,04,12,0.00
2019,12,19,04,13,0.00
2019,12,19,04,14,0.00
2019,12,19,04,15,0.00
2019,12,19,04,16,0.00
2019,12,19,04,17,0.00
2019,12,19,04,18,0.00
2019,12,19,04,19,0.00
2019,12,19,04,20,0.00
2019,12,19,04,21,0.00
2019,12,19,04,22,0.00
2019,12,19,04,23,0.00
2019,12,19,04,24,0.00
2019,12,19,04,25,0.30
2019,12,19,04,26,0.20
2019,12,19,04,27,0.00
2019,12,19,04,28,0.00
2019,12,19,04,29,0.00
2019,12,19,04,30,0.00
2019,12,19,04,31,0.00
2019,12,19,04,32,0.30
2019,12,19,04,33,7.80
2019,12,19,04,34,7.90
2019,12,19,04,35,0.00
2019,12,19,04,36,0.00
2019,12,19,04,37,0.00
2019,12,19,04,38,0.00
2019,12,19,04,39,0.00
2019,12,19,04,40,3.40
2019,12,19,04,41,0.10
2019,12,19,04,42,3.70
2019,12,19,04,43,8.50
2019,12,19,04,44,0.00
2019,12,19,04,45,2.50
2019,12,19,04,46,7.80
2019,12,19,04,47,8.70
2019,12,19,04,48,8.50
2019,12,19,04,49,4.80
2019,12,19,04,50,0.90
2019,12,19,04,51,6.10
2019,12,19,04,52,5.90
2019,12,19,04,53,0.00
2019,12,19,04,54,0.10
2019,12,19,04,55,6.30
2019,12,19,04,56,0.00
2019,12,19,04,57,5.40
2019,12,19,04,58,15.20
2019,12,19,04,59,4.20
2019,12,19,05,00,0.20
2019,12,19,05,01,13.30
2019,12,19,05,02,8.60
2019,12,19,05,03,11.50
2019,12,19,05,04,5.70
2019,12,19,05,05,0.00
2019,12,19,05,06,0.00
2019,12,19,05,07,0.00
2019,12,19,05,08,0.20
2019,12,19,05,09,2.80
2019,12,19,05,10,0.00
2019,12,19,05,11,0.00
2019,12,19,05,12,0.10
2019,12,19,05,13,5.80
2019,12,19,05,14,0.00
2019,12,19,05,15,0.00
2019,12,19,05,16,0.00
2019,12,19,05,17,0.00
2019,12,19,05,18,0.00
2019,12,19,05,19,0.00
2019,12,19,05,20,0.00
2019,12,19,05,21,0.00
2019,12,19,05,22,0.00
2019,12,19,05,23,0.00
2019,12,19,05,24,1.60
2019,12,19,05,25,0.00
2019,12,19,05,26,0.00
2019,12,19,05,27,0.00
2019,12,19,05,28,0.00
2019,12,19,05,29,0.00
2019,12,19,05,30,0.00
2019,12,19,05,31,0.00
2019,12,19,05,32,0.00
2019,12,19,05,33,0.00
2019,12,19,05,34,0.00
2019,12,19,05,35,0.00
2019,12,19,05,36,0.00
2019,12,19,05,37,0.00
2019,12,19,05,38,0.00
2019,12,19,05,39,0.00
2019,12,19,05,40,0.00
2019,12,19,05,41,0.00
2019,12,19,05,42,5.00
2019,12,19,05,43,10.50
2019,12,19,05,44,0.00
2019,12,19,05,45,0.00
2019,12,19,05,46,2.70
2019,12,19,05,47,0.00
2019,12,19,05,48,0.00
2019,12,19,05,49,0.00
2019,12,19,05,50,0.00
2019,12,19,05,51,0.00
2019,12,19,05,52,0.00
2019,12,19,05,53,0.00
2019,12,19,05,54,0.00
2019,12,19,05,55,0.10
2019,12,19,05,56,4.40
2019,12,19,05,57,0.00
2019,12,19,05,58,0.00
2019,12,19,05,59,0.60
2019,12,19,06,00,1.40
2019,12,19,06,01,0.10
2019,12,19,06,02,0.10
2019,12,19,06,03,0.00
2019,12,19,06,04,0.00
2019,12,19,06,05,0.00
2019,12,19,06,06,0.00
2019,12,19,06,07,5.50
2019,12,19,06,08,7.20
2019,12,19,06,09,0.00
2019,12,19,06,10,0.10
2019,12,19,06,11,0.00
2019,12,19,06,12,0.00
2019,12,19,06,13,0.00
2019,12,19,06,14,0.00
2019,12,19,06,15,0.00
2019,12,19,06,16,5.30
2019,12,19,06,17,0.00
2019,12,19,06,18,0.00
2019,12,19,06,19,0.00
2019,12,19,06,20,0.00
2019,12,19,06,21,0.00
2019,12,19,06,22,2.20
2019,12,19,06,23,3.40
2019,12,19,06,24,0.00
2019,12,19,06,25,0.00
2019,12,19,06,26,0.00
2019,12,19,06,27,0.00
2019,12,19,06,28,0.00
2019,12,19,06,29,0.10
2019,12,19,06,30,0.00
2019,12,19,06,31,1.90
2019,12,19,06,32,0.00
2019,12,19,06,33,0.00
2019,12,19,06,34,0.40
2019,12,19,06,35,5.40
2019,12,19,06,36,0.70
2019,12,19,06,37,12.40
2019,12,19,06,38,2.70
2019,12,19,06,39,1.10
2019,12,19,06,40,0.00
2019,12,19,06,41,0.00
2019,12,19,06,42,0.00
2019,12,19,06,43,0.00
2019,12,19,06,44,0.00
2019,12,19,06,45,0.00
2019,12,19,06,46,0.00
2019,12,19,06,47,0.10
2019,12,19,06,48,9.90
2019,12,19,06,49,0.00
2019,12,19,06,50,6.00
2019,12,19,06,51,4.80
2019,12,19,06,52,20.20
2019,12,19,06,53,14.20
2019,12,19,06,54,4.00
2019,12,19,06,55,7.30
2019,12,19,06,56,1.30
2019,12,19,06,57,8.10
2019,12,19,06,58,12.00
2019,12,19,06,59,9.10
2019,12,19,07,00,20.50
2019,12,19,07,01,29.40
2019,12,19,07,02,34.30
2019,12,19,07,03,25.50
2019,12,19,07,04,24.60
2019,12,19,07,05,26.10
2019,12,19,07,06,29.00
2019,12,19,07,07,36.20
2019,12,19,07,08,33.00
2019,12,19,07,09,29.00
2019,12,19,07,10,19.80
2019,12,19,07,11,32.40
2019,12,19,07,12,26.10
2019,12,19,07,13,39.20
2019,12,19,07,14,26.50
2019,12,19,07,15,49.90
2019,12,19,07,16,37.10
2019,12,19,07,17,40.70
2019,12,19,07,18,29.50
2019,12,19,07,19,38.80
2019,12,19,07,20,41.80
2019,12,19,07,21,33.00
2019,12,19,07,22,15.60
2019,12,19,07,23,22.50
2019,12,19,07,24,40.80
2019,12,19,07,25,41.40
2019,12,19,07,26,38.30
2019,12,19,07,27,19.20
2019,12,19,07,28,29.90
2019,12,19,07,29,24.40
2019,12,19,07,30,39.30
2019,12,19,07,31,23.90
2019,12,19,07,32,33.20
2019,12,19,07,33,15.90
2019,12,19,07,34,13.50
2019,12,19,07,35,23.20
2019,12,19,07,36,27.50
2019,12,19,07,37,33.80
2019,12,19,07,38,37.90
2019,12,19,07,39,37.90
2019,12,19,07,40,36.00
2019,12,19,07,41,48.00
2019,12,19,07,42,41.10
2019,12,19,07,43,31.80
2019,12,19,07,44,37.40
2019,12,19,07,45,37.60
2019,12,19,07,46,35.80
2019,12,19,07,47,28.50
2019,12,19,07,48,27.70
2019,12,19,07,49,21.20
2019,12,19,07,50,25.30
2019,12,19,07,51,23.20
2019,12,19,07,52,29.90
2019,12,19,07,53,19.80
2019,12,19,07,54,13.50
2019,12,19,07,55,32.50
2019,12,19,07,56,37.30
2019,12,19,07,57,41.50
2019,12,19,07,58,17.50
2019,12,19,07,59,18.20
2019,12,19,08,00,14.60
2019,12,19,08,01,26.40
2019,12,19,08,02,26.40
2019,12,19,08,03,26.40
2019,12,19,08,04,40.60
2019,12,19,08,05,33.30
2019,12,19,08,06,38.70
2019,12,19,08,07,34.30
2019,12,19,08,08,30.70
2019,12,19,08,09,12.40
2019,12,19,08,10,19.20
2019,12,19,08,11,16.30
2019,12,19,08,12,21.40
2019,12,19,08,13,38.10
2019,12,19,08,14,27.50
2019,12,19,08,15,24.70
2019,12,19,08,16,32.50
2019,12,19,08,17,26.70
2019,12,19,08,18,22.30
2019,12,19,08,19,38.10
2019,12,19,08,20,35.60
2019,12,19,08,21,35.40
2019,12,19,08,22,34.30
2019,12,19,08,23,33.00
2019,12,19,08,24,38.50
2019,12,19,08,25,31.60
2019,12,19,08,26,34.80
2019,12,19,08,27,41.90
2019,12,19,08,28,33.40
2019,12,19,08,29,32.70
2019,12,19,08,30,35.30
2019,12,19,08,31,36.50
2019,12,19,08,32,47.10
2019,12,19,08,33,30.90
2019,12,19,08,34,36.60
2019,12,19,08,35,42.20
2019,12,19,08,36,46.90
2019,12,19,08,37,34.40
2019,12,19,08,38,41.30
2019,12,19,08,39,32.60
2019,12,19,08,40,35.10
2019,12,19,08,41,40.20
2019,12,19,08,42,37.10
2019,12,19,08,43,54.70
2019,12,19,08,44,56.70
2019,12,19,08,45,40.80
2019,12,19,08,46,35.90
2019,12,19,08,47,41.80
2019,12,19,08,48,44.60
2019,12,19,08,49,41.40
2019,12,19,08,50,44.20
2019,12,19,08,51,40.10
2019,12,19,08,52,37.30
2019,12,19,08,53,41.50
2019,12,19,08,54,38.90
2019,12,19,08,55,45.50
2019,12,19,08,56,36.40
2019,12,19,08,57,33.60
2019,12,19,08,58,35.40
2019,12,19,08,59,41.10
2019,12,19,09,00,43.60
2019,12,19,09,01,33.50
2019,12,19,09,02,35.60
2019,12,19,09,03,30.50
2019,12,19,09,04,23.30
2019,12,19,09,05,41.40
2019,12,19,09,06,35.40
2019,12,19,09,07,32.00
2019,12,19,09,08,31.40
2019,12,19,09,09,38.30
2019,12,19,09,10,35.10
2019,12,19,09,11,41.70
2019,12,19,09,12,28.30
2019,12,19,09,13,30.70
2019,12,19,09,14,26.00
2019,12,19,09,15,32.00
2019,12,19,09,16,26.70
2019,12,19,09,17,27.00
2019,12,19,09,18,33.40
2019,12,19,09,19,23.90
2019,12,19,09,20,31.50
2019,12,19,09,21,31.20
2019,12,19,09,22,24.70
2019,12,19,09,23,36.90
2019,12,19,09,24,30.10
2019,12,19,09,25,26.70
2019,12,19,09,26,36.10
2019,12,19,09,27,35.10
2019,12,19,09,28,31.80
2019,12,19,09,29,43.40
2019,12,19,09,30,33.90
2019,12,19,09,31,37.40
2019,12,19,09,32,20.40
2019,12,19,09,33,46.50
2019,12,19,09,34,43.60
2019,12,19,09,35,35.10
2019,12,19,09,36,34.80
2019,12,19,09,37,38.90
2019,12,19,09,38,30.50
2019,12,19,09,39,40.50
2019,12,19,09,40,36.10
2019,12,19,09,41,38.40
2019,12,19,09,42,39.00
2019,12,19,09,43,39.90
2019,12,19,09,44,36.80
2019,12,19,09,45,30.70
2019,12,19,09,46,25.10
2019,12,19,09,47,31.90
2019,12,19,09,48,45.60
2019,12,19,09,49,34.70
2019,12,19,09,50,26.00
2019,12,19,09,51,45.60
2019,12,19,09,52,56.20
2019,12,19,09,53,38.20
2019,12,19,09,54,19.80
2019,12,19,09,55,32.50
2019,12,19,09,56,27.50
2019,12,19,09,57,15.50
2019,12,19,09,58,10.80
2019,12,19,09,59,12.90
2019,12,19,10,00,12.60
2019,12,19,10,01,16.20
2019,12,19,10,02,20.80
2019,12,19,10,03,31.10
2019,12,19,10,04,21.10
2019,12,19,10,05,18.10
2019,12,19,10,06,15.90
2019,12,19,10,07,19.00
2019,12,19,10,08,35.10
2019,12,19,10,09,21.40
2019,12,19,10,10,16.10
2019,12,19,10,11,16.70
2019,12,19,10,12,22.50
2019,12,19,10,13,21.50
2019,12,19,10,14,35.70
2019,12,19,10,15,37.60
2019,12,19,10,16,48.40
2019,12,19,10,17,48.00
2019,12,19,10,18,39.60
2019,12,19,10,19,27.70
2019,12,19,10,20,36.00
2019,12,19,10,21,27.10
2019,12,19,10,22,35.60
2019,12,19,10,23,31.00
2019,12,19,10,24,27.60
2019,12,19,10,25,39.60
2019,12,19,10,26,28.50
2019,12,19,10,27,28.10
2019,12,19,10,28,14.50
2019,12,19,10,29,33.20
2019,12,19,10,30,23.40
2019,12,19,10,31,26.00
2019,12,19,10,32,26.60
2019,12,19,10,33,18.90
2019,12,19,10,34,27.40
2019,12,19,10,35,39.70
2019,12,19,10,36,25.10
2019,12,19,10,37,40.40
2019,12,19,10,38,39.10
2019,12,19,10,39,24.10
2019,12,19,10,40,39.40
2019,12,19,10,41,37.60
2019,12,19,10,42,26.40
2019,12,19,10,43,14.90
2019,12,19,10,44,37.10
2019,12,19,10,45,30.20
2019,12,19,10,46,17.60
2019,12,19,10,47,25.00
2019,12,19,10,48,32.60
2019,12,19,10,49,30.80
2019,12,19,10,50,41.30
2019,12,19,10,51,33.00
2019,12,19,10,52,30.10
2019,12,19,10,53,32.70
2019,12,19,10,54,32.10
2019,12,19,10,55,25.50
2019,12,19,10,56,37.30
2019,12,19,10,57,32.80
2019,12,19,10,58,29.50
2019,12,19,10,59,36.30
2019,12,19,11,00,28.80
2019,12,19,11,01,33.70
2019,12,19,11,02,42.50
2019,12,19,11,03,31.20
2019,12,19,11,04,34.00
2019,12,19,11,05,31.60
2019,12,19,11,06,35.50
2019,12,19,11,07,24.40
2019,12,19,11,08,27.60
2019,12,19,11,09,29.20
2019,12,19,11,10,43.50
2019,12,19,11,11,32.50
2019,12,19,11,12,40.00
2019,12,19,11,13,29.50
2019,12,19,11,14,35.00
2019,12,19,11,15,43.20
2019,12,19,11,16,39.60
2019,12,19,11,17,39.70
2019,12,19,11,18,37.00
2019,12,19,11,19,30.00
2019,12,19,11,20,32.30
2019,12,19,11,21,29.90
2019,12,19,11,22,28.60
2019,12,19,11,23,26.10
2019,12,19,11,24,31.80
2019,12,19,11,25,25.30
2019,12,19,11,26,24.50
2019,12,19,11,27,39.70
2019,12,19,11,28,39.90
2019,12,19,11,29,34.90
2019,12,19,11,30,33.60
2019,12,19,11,31,33.20
2019,12,19,11,32,26.70
2019,12,19,11,33,32.80
2019,12,19,11,34,30.70
2019,12,19,11,35,27.00
2019,12,19,11,36,25.10
2019,12,19,11,37,33.60
2019,12,19,11,38,23.20
2019,12,19,11,39,27.90
2019,12,19,11,40,22.50
2019,12,19,11,41,29.90
2019,12,19,11,42,25.60
2019,12,19,11,43,29.80
2019,12,19,11,44,27.30
2019,12,19,11,45,28.20
2019,12,19,11,46,24.80
2019,12,19,11,47,27.20
2019,12,19,11,48,27.80
2019,12,19,11,49,27.20
2019,12,19,11,50,32.70
2019,12,19,11,51,37.20
2019,12,19,11,52,27.90
2019,12,19,11,53,35.70
2019,12,19,11,54,37.50
2019,12,19,11,55,28.30
2019,12,19,11,56,22.20
2019,12,19,11,57,19.40
2019,12,19,11,58,19.50
2019,12,19,11,59,19.90
2019,12,19,12,00,29.20
2019,12,19,12,01,34.10
2019,12,19,12,02,18.30
2019,12,19,12,03,22.40
2019,12,19,12,04,16.40
2019,12,19,12,05,17.80
2019,12,19,12,06,15.20
2019,12,19,12,07,15.20
2019,12,19,12,08,30.10
2019,12,19,12,09,22.20
2019,12,19,12,10,21.80
2019,12,19,12,11,17.10
2019,12,19,12,12,38.50
2019,12,19,12,13,25.40
2019,12,19,12,14,27.70
2019,12,19,12,15,29.40
2019,12,19,12,16,23.90
2019,12,19,12,17,35.50
2019,12,19,12,18,23.00
2019,12,19,12,19,37.20
2019,12,19,12,20,20.40
2019,12,19,12,21,31.20
2019,12,19,12,22,23.90
2019,12,19,12,23,18.90
2019,12,19,12,24,29.40
2019,12,19,12,25,30.40
2019,12,19,12,26,21.10
2019,12,19,12,27,16.00
2019,12,19,12,28,27.80
2019,12,19,12,29,23.40
2019,12,19,12,30,35.70
2019,12,19,12,31,37.50
2019,12,19,12,32,25.00
2019,12,19,12,33,30.90
2019,12,19,12,34,27.50
2019,12,19,12,35,27.40
2019,12,19,12,36,31.30
2019,12,19,12,37,22.10
2019,12,19,12,38,15.90
2019,12,19,12,39,22.60
2019,12,19,12,40,29.30
2019,12,19,12,41,22.90
2019,12,19,12,42,41.10
2019,12,19,12,43,33.10
2019,12,19,12,44,26.00
2019,12,19,12,45,32.70
2019,12,19,12,46,31.80
2019,12,19,12,47,26.70
2019,12,19,12,48,27.10
2019,12,19,12,49,37.30
2019,12,19,12,50,23.50
2019,12,19,12,51,25.40
2019,12,19,12,52,32.00
2019,12,19,12,53,22.30
2019,12,19,12,54,25.50
2019,12,19,12,55,25.30
2019,12,19,12,56,32.50
2019,12,19,12,57,27.40
2019,12,19,12,58,35.30
2019,12,19,12,59,42.30
2019,12,19,13,00,29.00
2019,12,19,13,01,35.00
2019,12,19,13,02,26.10
2019,12,19,13,03,44.20
2019,12,19,13,04,25.80
2019,12,19,13,05,33.50
2019,12,19,13,06,36.30
2019,12,19,13,07,28.00
2019,12,19,13,08,32.00
2019,12,19,13,09,34.30
2019,12,19,13,10,44.40
2019,12,19,13,11,39.10
2019,12,19,13,12,21.50
2019,12,19,13,13,39.90
2019,12,19,13,14,23.90
2019,12,19,13,15,26.40
2019,12,19,13,16,20.60
2019,12,19,13,17,25.30
2019,12,19,13,18,37.30
2019,12,19,13,19,45.60
2019,12,19,13,20,25.60
2019,12,19,13,21,25.60
2019,12,19,13,22,34.30
2019,12,19,13,23,27.40
2019,12,19,13,24,27.20
2019,12,19,13,25,47.40
2019,12,19,13,26,26.70
2019,12,19,13,27,35.00
2019,12,19,13,28,38.70
2019,12,19,13,29,29.50
2019,12,19,13,30,28.90
2019,12,19,13,31,27.40
2019,12,19,13,32,24.10
2019,12,19,13,33,14.30
2019,12,19,13,34,22.80
2019,12,19,13,35,33.00
2019,12,19,13,36,44.00
2019,12,19,13,37,20.40
2019,12,19,13,38,17.00
2019,12,19,13,39,14.60
2019,12,19,13,40,13.80
2019,12,19,13,41,9.40
2019,12,19,13,42,15.30
2019,12,19,13,43,24.20
2019,12,19,13,44,20.50
2019,12,19,13,45,17.60
2019,12,19,13,46,22.90
2019,12,19,13,47,24.00
2019,12,19,13,48,21.90
2019,12,19,13,49,14.80
2019,12,19,13,50,14.20
2019,12,19,13,51,21.00
2019,12,19,13,52,20.90
2019,12,19,13,53,28.90
2019,12,19,13,54,20.80
2019,12,19,13,55,12.90
2019,12,19,13,56,17.00
2019,12,19,13,57,29.60
2019,12,19,13,58,30.10
2019,12,19,13,59,29.50
2019,12,19,14,00,28.50
2019,12,19,14,01,30.20
2019,12,19,14,02,29.10
2019,12,19,14,03,22.80
2019,12,19,14,04,29.20
2019,12,19,14,05,31.80
2019,12,19,14,06,27.40
2019,12,19,14,07,30.80
2019,12,19,14,08,27.70
2019,12,19,14,09,26.10
2019,12,19,14,10,22.50
2019,12,19,14,11,20.40
2019,12,19,14,12,16.60
2019,12,19,14,13,33.30
2019,12,19,14,14,20.60
2019,12,19,14,15,15.80
2019,12,19,14,16,21.00
2019,12,19,14,17,13.20
2019,12,19,14,18,23.30
2019,12,19,14,19,23.80
2019,12,19,14,20,15.00
2019,12,19,14,21,27.50
2019,12,19,14,22,13.70
2019,12,19,14,23,23.20
2019,12,19,14,24,16.10
2019,12,19,14,25,17.90
2019,12,19,14,26,20.50
2019,12,19,14,27,24.10
2019,12,19,14,28,26.00
2019,12,19,14,29,38.90
2019,12,19,14,30,54.20
2019,12,19,14,31,43.10
2019,12,19,14,32,40.00
2019,12,19,14,33,40.00
2019,12,19,14,34,30.40
2019,12,19,14,35,38.70
2019,12,19,14,36,34.60
2019,12,19,14,37,40.20
2019,12,19,14,38,43.00
2019,12,19,14,39,40.20
2019,12,19,14,40,65.20
2019,12,19,14,41,44.00
2019,12,19,14,42,48.70
2019,12,19,14,43,37.10
2019,12,19,14,44,59.50
2019,12,19,14,45,48.10
2019,12,19,14,46,65.40
2019,12,19,14,47,43.50
2019,12,19,14,48,47.30
2019,12,19,14,49,54.60
2019,12,19,14,50,51.30
2019,12,19,14,51,50.80
2019,12,19,14,52,57.60
2019,12,19,14,53,67.50
2019,12,19,14,54,63.70
2019,12,19,14,55,58.30
2019,12,19,14,56,63.70
2019,12,19,14,57,60.90
2019,12,19,14,58,62.10
2019,12,19,14,59,57.90
2019,12,19,15,00,60.80
2019,12,19,15,01,60.10
2019,12,19,15,02,65.00
2019,12,19,15,03,46.70
2019,12,19,15,04,64.90
2019,12,19,15,05,76.60
2019,12,19,15,06,54.70
2019,12,19,15,07,46.10
2019,12,19,15,08,55.10
2019,12,19,15,09,52.60
2019,12,19,15,10,34.10
2019,12,19,15,11,25.00
2019,12,19,15,12,24.90
2019,12,19,15,13,34.00
2019,12,19,15,14,36.10
2019,12,19,15,15,56.60
2019,12,19,15,16,44.00
2019,12,19,15,17,40.50
2019,12,19,15,18,45.90
2019,12,19,15,19,54.40
2019,12,19,15,20,49.10
2019,12,19,15,21,49.90
2019,12,19,15,22,56.80
2019,12,19,15,23,35.40
2019,12,19,15,24,42.50
2019,12,19,15,25,51.10
2019,12,19,15,26,41.40
2019,12,19,15,27,42.00
2019,12,19,15,28,56.50
2019,12,19,15,29,50.30
2019,12,19,15,30,60.60
2019,12,19,15,31,54.50
2019,12,19,15,32,57.50
2019,12,19,15,33,61.30
2019,12,19,15,34,51.60
2019,12,19,15,35,55.90
2019,12,19,15,36,58.10
2019,12,19,15,37,72.90
2019,12,19,15,38,91.60
2019,12,19,15,39,79.90
2019,12,19,15,40,57.10
2019,12,19,15,41,66.70
2019,12,19,15,42,46.70
2019,12,19,15,43,40.30
2019,12,19,15,44,45.10
2019,12,19,15,45,47.30
2019,12,19,15,46,44.80
2019,12,19,15,47,71.00
2019,12,19,15,48,51.80
2019,12,19,15,49,36.80
2019,12,19,15,50,63.10
2019,12,19,15,51,56.40
2019,12,19,15,52,52.30
2019,12,19,15,53,46.50
2019,12,19,15,54,59.80
2019,12,19,15,55,54.40
2019,12,19,15,56,41.60
2019,12,19,15,57,61.20
2019,12,19,15,58,69.10
2019,12,19,15,59,59.90
2019,12,19,16,00,46.40
2019,12,19,16,01,40.90
2019,12,19,16,02,61.90
2019,12,19,16,03,47.60
2019,12,19,16,04,62.60
2019,12,19,16,05,86.60
2019,12,19,16,06,66.20
2019,12,19,16,07,64.50
2019,12,19,16,08,52.90
2019,12,19,16,09,55.60
2019,12,19,16,10,40.90
2019,12,19,16,11,61.80
2019,12,19,16,12,54.90
2019,12,19,16,13,71.40
2019,12,19,16,14,47.90
2019,12,19,16,15,43.20
2019,12,19,16,16,24.30
2019,12,19,16,17,33.40
2019,12,19,16,18,51.60
2019,12,19,16,19,49.20
2019,12,19,16,20,47.10
2019,12,19,16,21,55.60
2019,12,19,16,22,67.70
2019,12,19,16,23,56.30
2019,12,19,16,24,43.50
2019,12,19,16,25,80.00
2019,12,19,16,26,62.10
2019,12,19,16,27,54.00
2019,12,19,16,28,59.50
2019,12,19,16,29,73.20
2019,12,19,16,30,64.10
2019,12,19,16,31,36.90
2019,12,19,16,32,55.50
2019,12,19,16,33,50.50
2019,12,19,16,34,46.90
2019,12,19,16,35,56.80
2019,12,19,16,36,63.40
2019,12,19,16,37,67.30
2019,12,19,16,38,70.60
2019,12,19,16,39,62.60
2019,12,19,16,40,58.50
2019,12,19,16,41,59.90
2019,12,19,16,42,68.90
2019,12,19,16,43,65.00
2019,12,19,16,44,68.50
2019,12,19,16,45,77.30
2019,12,19,16,46,83.00
2019,12,19,16,47,67.70
2019,12,19,16,48,37.80
2019,12,19,16,49,40.80
2019,12,19,16,50,43.20
2019,12,19,16,51,47.30
2019,12,19,16,52,53.00
2019,12,19,16,53,53.20
2019,12,19,16,54,64.30
2019,12,19,16,55,66.70
2019,12,19,16,56,62.60
2019,12,19,16,57,46.40
2019,12,19,16,58,64.40
2019,12,19,16,59,53.20
2019,12,19,17,00,65.20
2019,12,19,17,01,52.30
2019,12,19,17,02,52.20
2019,12,19,17,03,49.60
2019,12,19,17,04,41.90
2019,12,19,17,05,53.90
2019,12,19,17,06,53.30
2019,12,19,17,07,52.40
2019,12,19,17,08,63.80
2019,12,19,17,09,52.10
2019,12,19,17,10,57.60
2019,12,19,17,11,61.20
2019,12,19,17,12,49.90
2019,12,19,17,13,52.40
2019,12,19,17,14,50.20
2019,12,19,17,15,48.90
2019,12,19,17,16,63.80
2019,12,19,17,17,53.90
2019,12,19,17,18,52.50
2019,12,19,17,19,53.00
2019,12,19,17,20,41.00
2019,12,19,17,21,53.50
2019,12,19,17,22,57.90
2019,12,19,17,23,54.90
2019,12,19,17,24,27.70
2019,12,19,17,25,27.40
2019,12,19,17,26,42.10
2019,12,19,17,27,57.40
2019,12,19,17,28,42.00
2019,12,19,17,29,36.50
2019,12,19,17,30,46.10
2019,12,19,17,31,25.10
2019,12,19,17,32,34.90
2019,12,19,17,33,35.40
2019,12,19,17,34,40.50
2019,12,19,17,35,44.00
2019,12,19,17,36,31.30